Stations météo

réclame
Mon MeteoGroup
Baltasound, Grande-Bretagne (3002): Température de l'air & dewpoint: 18.01.2018 05:00:00 - 24.01.2018 05:00:00 (GMT)Baltasound, Grande-Bretagne (3002): Vitesse du vent & gusts: 18.01.2018 05:00:00 - 24.01.2018 05:00:00 (GMT)Baltasound, Grande-Bretagne (3002): Direction du vent: 18.01.2018 05:00:00 - 24.01.2018 05:00:00 (GMT)Baltasound, Grande-Bretagne (3002): reduced air pressure: 18.01.2018 05:00:00 - 24.01.2018 05:00:00 (GMT)Baltasound, Grande-Bretagne (3002): visibility: 18.01.2018 05:00:00 - 24.01.2018 05:00:00 (GMT)Baltasound, Grande-Bretagne (3002): Quantités de précipitations: 18.01.2018 05:00:00 - 24.01.2018 05:00:00 (GMT)
Date & Time tt [°C] td [°C] ff [km/h] ff [knt] fx [km/h] fx [knt] dd ppp [hPa] vv [km] rr [mm]
24.01.2018 05:00:00 4,1 3,1 21 11 - - S 985,8 22 0,0
24.01.2018 04:00:00 3,5 1,6 24 13 46 25 SW 986,7 35 0,0
24.01.2018 03:00:00 4,7 3,2 29 16 - - SW 987,7 30 0,6
24.01.2018 02:00:00 5,3 3,9 29 16 46 25 WSW 987,8 30 0,2
24.01.2018 01:00:00 4,8 3,6 28 15 - - WSW 987,2 23 0,4
24.01.2018 00:00:00 5,3 4,4 24 13 - - SW 987,0 30 0,2
23.01.2018 23:00:00 5,8 4,4 28 15 46 25 SSW 987,1 13 0,0
23.01.2018 22:00:00 6,2 5,1 37 20 46 25 SW 987,0 7 0,0
23.01.2018 21:00:00 6,2 5,7 26 14 - - SW 986,5 15 0,0
23.01.2018 20:00:00 6,3 5,9 24 13 - - SSW 986,5 20 0,2
23.01.2018 19:00:00 5,7 5,4 21 11 - - SW 986,7 10 0,0
23.01.2018 18:00:00 5,6 5,2 24 13 - - SW 986,9 14 0,4
23.01.2018 17:00:00 5,9 5,4 16 9 - - SW 987,1 9 3,0
23.01.2018 16:00:00 6,5 6,3 13 7 - - SW 987,1 8 1,2
23.01.2018 15:00:00 6,6 6,4 15 8 - - SSW 987,4 15 1,2
23.01.2018 14:00:00 6,8 6,5 15 8 - - SSW 988,2 4,9 1,4
23.01.2018 13:00:00 6,9 6,6 22 12 - - S 989,5 9 0,0
23.01.2018 12:00:00 6,9 6,6 26 14 - - SSW 990,7 7 0,2
23.01.2018 11:00:00 6,9 6,5 34 18 50 27 S 991,8 3,8 0,4
23.01.2018 10:00:00 6,8 6,3 34 18 50 27 S 992,6 8 0,0
23.01.2018 09:00:00 6,7 6,2 37 20 55 30 S 993,1 15 0,2
23.01.2018 08:00:00 6,7 6,0 37 20 55 30 S 993,8 11 0,0
23.01.2018 07:00:00 6,7 6,1 41 22 55 30 S 995,1 9 1,4
23.01.2018 06:00:00 6,8 6,0 37 20 50 27 S 995,7 9 0,2
23.01.2018 05:00:00 6,6 5,7 35 19 50 27 S 996,5 14 0,2
23.01.2018 04:00:00 6,4 5,6 37 20 52 28 SSW 997,7 4,2 0,2
23.01.2018 03:00:00 6,8 6,0 26 14 - - SSW 998,1 9 0,2
23.01.2018 02:00:00 6,5 5,7 24 13 - - SW 998,0 19 0,0
23.01.2018 01:00:00 7,0 6,1 26 14 54 29 WSW 998,0 9 0,4
23.01.2018 00:00:00 6,9 6,0 34 18 57 31 WSW 997,6 17 0,0
22.01.2018 23:00:00 6,7 6,0 26 14 - - SW 997,3 17 0,0
22.01.2018 22:00:00 6,3 6,1 21 11 - - SSW 996,8 17 0,0
22.01.2018 21:00:00 5,6 5,5 18 10 - - SW 996,7 19 0,0
22.01.2018 20:00:00 5,8 5,6 18 10 - - SSW 996,1 12 0,0
22.01.2018 19:00:00 5,9 5,7 18 10 - - SSW 995,8 9 0,0
22.01.2018 18:00:00 6,1 5,9 18 10 - - S 995,1 10 0,0
22.01.2018 17:00:00 6,5 6,3 21 11 - - SSW 994,9 10 0,0
22.01.2018 16:00:00 6,5 6,3 22 12 - - S 994,2 10 0,0
22.01.2018 15:00:00 6,5 6,3 21 11 - - S 993,9 9 0,0
22.01.2018 14:00:00 6,6 6,3 24 13 - - S 993,6 7 0,2
22.01.2018 13:00:00 6,5 6,0 24 13 - - S 993,6 9 0,0
22.01.2018 12:00:00 6,2 5,8 24 13 - - S 993,4 12 0,0
22.01.2018 11:00:00 6,3 5,9 22 12 - - S 993,2 14 0,0
22.01.2018 10:00:00 5,8 5,5 22 12 - - S 992,8 13 0,0
22.01.2018 09:00:00 5,8 5,5 18 10 - - S 992,4 6 0,0
22.01.2018 08:00:00 5,7 5,4 37 20 65 35 SSE 992,2 7 0,2
22.01.2018 07:00:00 4,9 4,4 46 25 68 37 SSE 992,3 4,3 0,4
22.01.2018 06:00:00 4,4 3,7 52 28 70 38 SE 993,0 3,3 1,0
22.01.2018 05:00:00 3,8 2,9 52 28 68 37 SE 993,6 5 0,8
22.01.2018 04:00:00 3,7 2,5 54 29 70 38 SE 994,4 9 0,4
22.01.2018 03:00:00 3,8 2,3 46 25 65 35 SE 995,0 8 0,4
22.01.2018 02:00:00 3,3 2,2 46 25 63 34 SE 995,8 9 1,2
22.01.2018 01:00:00 3,0 1,8 52 28 67 36 SE 996,7 5 2,0
22.01.2018 00:00:00 2,6 1,6 44 24 67 36 SE 997,7 6 0,6
21.01.2018 23:00:00 2,6 1,1 48 26 63 34 SSE 998,9 13 0,6
21.01.2018 22:00:00 3,3 1,1 41 22 57 31 SSE 999,6 22 0,2
21.01.2018 21:00:00 3,4 0,5 41 22 59 32 SE 1000,3 7 0,0
21.01.2018 20:00:00 4,0 1,1 39 21 48 26 SE 1001,1 23 0,0
21.01.2018 19:00:00 3,4 0,5 35 19 50 27 SSE 1002,3 40 0,2
21.01.2018 18:00:00 3,7 0,5 34 18 55 30 SE 1002,8 45 2,2
21.01.2018 17:00:00 3,4 0,1 29 16 46 25 SSE 1004,1 45 0,0
21.01.2018 16:00:00 3,4 -0,3 26 14 - - SSE 1005,1 50 0,0
21.01.2018 15:00:00 3,2 0,2 24 13 - - SSE 1006,0 45 0,0
21.01.2018 14:00:00 2,7 -0,1 18 10 - - SSE 1007,0 50 0,0
21.01.2018 13:00:00 0,1 -1,1 2 1 - - SW 1008,1 45 0,0
21.01.2018 12:00:00 -0,8 -1,5 2 1 - - NW 1008,9 10 0,0
21.01.2018 11:00:00 -1,9 -2,9 2 1 - - S 1009,5 45 0,0
21.01.2018 10:00:00 -3,9 -4,8 2 1 - - WNW 1009,8 50 0,0
21.01.2018 09:00:00 -3,1 -4,1 5 3 - - SW 1009,7 40 0,0
21.01.2018 08:00:00 -1,7 -2,3 8 4 - - WSW 1009,5 35 0,0
21.01.2018 07:00:00 -1,9 -2,7 5 3 - - WSW 1009,2 50 0,0
21.01.2018 06:00:00 -1,1 -1,9 8 4 - - W 1009,3 40 0,0
21.01.2018 05:00:00 -2,2 -3,1 8 4 - - W 1009,1 50 0,0
21.01.2018 04:00:00 -1,7 -2,8 8 4 - - WNW 1009,1 45 0,0
21.01.2018 03:00:00 -1,3 -2,5 8 4 - - W 1008,5 50 0,0
21.01.2018 02:00:00 -1,5 -2,6 5 3 - - W 1008,1 50 0,0
21.01.2018 01:00:00 -2,0 -2,8 8 4 - - W 1007,6 50 0,0
21.01.2018 00:00:00 -0,5 -1,4 2 1 - - W 1006,9 50 0,0
20.01.2018 23:00:00 -1,5 -2,9 13 7 - - WNW 1006,1 50 0,0
20.01.2018 22:00:00 -0,9 -2,3 5 3 - - WNW 1005,3 50 0,0
20.01.2018 21:00:00 -0,7 -2,1 8 4 - - NW 1004,5 50 0,0
20.01.2018 20:00:00 -0,7 -2,1 8 4 - - WNW 1003,7 50 0,0
20.01.2018 19:00:00 -1,2 -2,3 5 3 - - N 1002,9 50 0,0
20.01.2018 18:00:00 -0,6 -2,0 11 6 - - WNW 1002,0 50 0,0
20.01.2018 17:00:00 -2,0 -3,3 11 6 - - WNW 1001,1 50 0,0
20.01.2018 16:00:00 -1,5 -3,4 8 4 - - W 1000,1 50 0,0
20.01.2018 15:00:00 -0,1 -2,7 5 3 - - W 999,2 35 0,0
20.01.2018 14:00:00 0,7 -1,3 5 3 - - WSW 998,5 45 0,0
20.01.2018 13:00:00 -2,5 -3,4 5 3 - - W 998,0 40 0,0
20.01.2018 12:00:00 -2,0 -2,8 5 3 - - WSW 997,4 50 0,0
20.01.2018 11:00:00 -3,8 -4,4 4 2 - - WSW 997,1 35 0,0
20.01.2018 10:00:00 -4,4 -5,0 4 2 - - WSW 996,6 45 0,0
20.01.2018 09:00:00 -2,1 -2,5 4 2 - - WSW 996,1 50 0,0
20.01.2018 08:00:00 -1,5 -2,2 4 2 - - NW 995,4 45 0,0
20.01.2018 07:00:00 -2,8 -3,4 4 2 - - W 995,0 30 0,0
20.01.2018 06:00:00 -3,5 -4,0 5 3 - - WSW 994,5 17 0,0
20.01.2018 05:00:00 -5,0 -5,7 4 2 - - SW 994,2 25 0,0
20.01.2018 04:00:00 -2,8 -3,4 4 2 - - WSW 994,1 35 0,0
20.01.2018 03:00:00 -2,4 -3,1 4 2 - - WSW 994,2 50 0,0
20.01.2018 02:00:00 -2,1 -2,8 16 9 - - SW 994,1 50 0,0
20.01.2018 01:00:00 -3,0 -3,8 11 6 - - SW 994,1 50 0,0
20.01.2018 00:00:00 -2,1 -2,7 16 9 - - SW 993,9 45 0,0
19.01.2018 23:00:00 -2,3 -2,9 16 9 - - SSW 993,8 50 0,0
19.01.2018 22:00:00 -1,7 -2,3 18 10 - - SW 993,6 50 0,0
19.01.2018 21:00:00 -2,0 -2,5 16 9 - - SW 993,5 40 0,0
19.01.2018 20:00:00 -2,5 -3,2 15 8 - - SW 993,4 50 0,0
19.01.2018 19:00:00 -1,9 -2,6 15 8 - - SSW 993,0 35 0,0
19.01.2018 18:00:00 -2,1 -3,1 13 7 - - SSW 992,9 50 0,0
19.01.2018 17:00:00 -1,6 -2,6 15 8 - - SSW 992,8 50 0,0
19.01.2018 16:00:00 -0,7 -1,2 21 11 - - SW 992,6 50 0,0
19.01.2018 15:00:00 -1,3 -2,0 18 10 - - SW 992,5 45 0,0
19.01.2018 14:00:00 -1,3 -1,9 21 11 - - SW 992,3 28 0,0
19.01.2018 13:00:00 0,4 -0,3 16 9 - - SSW 992,2 35 0,0
19.01.2018 12:00:00 -0,5 -0,9 18 10 - - SW 992,4 45 0,0
19.01.2018 11:00:00 -0,6 -1,3 16 9 - - SW 992,3 45 0,0
19.01.2018 10:00:00 1,0 0,4 15 8 - - SSW 992,1 50 0,0
19.01.2018 09:00:00 0,5 0,1 11 6 - - WSW 991,8 4,6 0,0
19.01.2018 08:00:00 -1,6 -2,1 18 10 - - SW 991,4 50 0,0
19.01.2018 07:00:00 -0,8 -1,5 21 11 - - SW 991,2 50 0,0
19.01.2018 06:00:00 0,7 -0,4 18 10 - - SW 990,7 45 0,0
19.01.2018 05:00:00 1,4 0,3 22 12 - - SW 990,7 45 0,0
19.01.2018 04:00:00 0,8 0,2 18 10 - - SW 991,0 50 0,0
19.01.2018 03:00:00 1,3 0,8 21 11 - - SSW 990,9 25 0,0
19.01.2018 02:00:00 -0,5 -1,0 18 10 - - SW 991,2 50 0,0
19.01.2018 01:00:00 -1,8 -2,6 18 10 - - SW 991,0 50 0,0
19.01.2018 00:00:00 0,0 -0,5 21 11 - - SW 990,7 50 0,0
18.01.2018 23:00:00 0,6 0,2 18 10 - - SW 990,8 45 0,0
18.01.2018 22:00:00 -1,3 -1,9 18 10 - - SW 990,7 40 0,0
18.01.2018 21:00:00 -1,6 -2,2 18 10 - - SW 990,7 50 0,0
18.01.2018 20:00:00 -1,7 -2,3 15 8 - - SW 990,6 50 0,0
18.01.2018 19:00:00 0,1 -0,4 15 8 - - SW 990,3 35 0,0
18.01.2018 18:00:00 -0,4 -0,9 18 10 - - SW 990,0 45 0,0
18.01.2018 17:00:00 -1,5 -2,3 5 3 - - WSW 989,4 40 0,2
18.01.2018 16:00:00 0,8 -0,1 22 12 - - W 989,2 3,5 0,0
18.01.2018 15:00:00 -0,3 -1,5 16 9 - - SW 988,6 50 0,0
18.01.2018 14:00:00 1,2 0,4 13 7 - - SW 988,3 30 0,0
18.01.2018 13:00:00 1,1 -0,1 15 8 - - SW 988,2 35 0,6
18.01.2018 12:00:00 1,5 0,3 18 10 - - WSW 988,0 35 0,2
18.01.2018 11:00:00 1,4 0,5 13 7 - - W 987,8 13 0,4
18.01.2018 10:00:00 1,2 0,3 9 5 - - WNW 987,4 12 0,0
18.01.2018 09:00:00 0,0 -1,5 18 10 - - SW 986,9 27 0,0
18.01.2018 08:00:00 -0,3 -2,1 9 5 - - SSW 986,5 35 0,0
18.01.2018 07:00:00 -1,6 -3,1 15 8 - - SW 986,2 35 0,0
18.01.2018 06:00:00 -3,8 -5,4 4 2 - - SSW 985,8 40 0,0
18.01.2018 05:00:00 -3,9 -5,5 2 1 - - E 985,8 28 0,0

tt = Température de l'air
td = dewpoint
ff = Vitesse du vent
fx = gusts
dd = Direction du vent
ppp = reduced air pressure
vv = visibility
rr = Quantités de précipitations

stations d'obs. à proximité